Weather History for Clearfield, PA

Change the Weather History Date:

Wednesday, October 2, 2013

  Actual Average (KDUJ) Record (KDUJ)
Temperature  
Mean Temperature 65 °F 54 °F  
Max Temperature 79 °F 63 °F 79 °F (2013)
Min Temperature 53 °F 44 °F 28 °F (1974)
Degree Days  
Heating Degree Days 0 12  
Month to date heating degree days 23  
Since 1 July heating degree days 269  
Cooling Degree Days 0 0  
Month to date cooling degree days 0  
Year to date cooling degree days 360  
Growing Degree Days 15 (Base 50)    
Moisture  
Dew Point 58 °F    
Average Humidity 89    
Maximum Humidity 100    
Minimum Humidity 58    
Precipitation  
Precipitation 0.01 in 0.10 in 1.07 in (1969)
Month to date precipitation 0.21  
Sea Level Pressure  
Sea Level Pressure 30.07 in    
Wind  
Wind Speed 6 mph (SW)    
Max Wind Speed 12 mph    
Max Gust Speed 22 mph    
Visibility 6 miles    
Events Fog    
T = Trace of Precipitation, MM = Missing Value Source: NWS Daily Summary

Daily Weather History Graph

Daily Weather History Graph

Search for Another Location

Airport:

Trip Planner

Search our weather history database for the weather conditions in past years. The results will help you decide how hot, cold, wet, or windy it might be!

Date:

Astronomy

Oct. 02, 2013 Rise Set
Actual Time 7:11 AM EDT 6:53 PM EDT
Civil Twilight 6:44 AM EDT 7:20 PM EDT
Nautical Twilight 6:12 AM EDT 7:52 PM EDT
Astronomical Twilight 5:40 AM EDT 8:24 PM EDT
Moon 4:41 AM EDT (10/2) 5:29 PM EDT (10/2)
Length of Visible Light 12h 36m
Length of Day
11h 41m
Waning Crescent, 6% of the Moon is Illuminated
Oct 2
Waning Crescent
Oct 4
New
Oct 11
First Quarter
Oct 18
Full
Oct 26
Last Quarter

Hourly Weather History & Observations

Time (EDT) Temp. Dew Point Humidity Pressure Visibility Wind Dir Wind Speed Gust Speed Precip Events Conditions
12:54 AM 55.0 °F 55.0 °F 100% 30.04 in 8.0 mi SSW 4.6 mph - N/A   Clear
1:54 AM 55.9 °F 55.9 °F 100% 30.05 in 5.0 mi SSW 5.8 mph - N/A   Clear
2:54 AM 55.0 °F 55.0 °F 100% 30.04 in 4.0 mi SSW 5.8 mph - N/A   Clear
3:54 AM 55.9 °F 55.9 °F 100% 30.04 in 4.0 mi SSW 6.9 mph - N/A   Clear
4:06 AM 55.4 °F 55.4 °F 100% 30.05 in 2.5 mi SSW 5.8 mph - N/A   Clear
4:18 AM 55.4 °F 55.4 °F 100% 30.05 in 4.0 mi SSW 6.9 mph - N/A   Clear
4:54 AM 55.0 °F 55.0 °F 100% 30.04 in 7.0 mi SSW 5.8 mph - N/A   Clear
5:54 AM 55.0 °F 55.0 °F 100% 30.05 in 5.0 mi SSW 5.8 mph - N/A   Clear
6:33 AM 53.6 °F 53.6 °F 100% 30.07 in 2.5 mi SSW 5.8 mph - 0.01 in   Clear
6:38 AM 55.4 °F 55.4 °F 100% 30.07 in 1.8 mi SSW 5.8 mph - 0.01 in   Partly Cloudy
6:43 AM 53.6 °F 53.6 °F 100% 30.07 in 0.8 mi SSW 4.6 mph - 0.01 in   Mist
6:54 AM 55.0 °F 55.0 °F 100% 30.06 in 0.2 mi SSW 5.8 mph - 0.01 in Fog Fog
7:08 AM 55.4 °F 55.4 °F 100% 30.08 in 1.0 mi SSW 5.8 mph - N/A   Overcast
7:18 AM 55.4 °F 55.4 °F 100% 30.08 in 2.0 mi SSW 5.8 mph - N/A   Overcast
7:27 AM 55.4 °F 55.4 °F 100% 30.08 in 1.8 mi SSW 6.9 mph - N/A   Mostly Cloudy
7:45 AM 55.4 °F 55.4 °F 100% 30.08 in 2.5 mi SSW 8.1 mph - N/A   Partly Cloudy
7:52 AM 55.4 °F 55.4 °F 100% 30.08 in 3.0 mi SW 6.9 mph - N/A   Clear
7:54 AM 55.9 °F 55.9 °F 100% 30.08 in 3.0 mi SSW 6.9 mph - N/A   Clear
8:54 AM 57.9 °F 57.9 °F 100% 30.09 in 7.0 mi SSW 5.8 mph - N/A   Partly Cloudy
9:54 AM 62.1 °F 60.1 °F 93% 30.10 in 10.0 mi SW 6.9 mph - N/A   Partly Cloudy
10:54 AM 64.0 °F 61.0 °F 90% 30.10 in 10.0 mi SSW 6.9 mph - N/A   Mostly Cloudy
11:54 AM 64.9 °F 61.0 °F 87% 30.10 in 10.0 mi WNW 10.4 mph - N/A   Mostly Cloudy
12:13 PM 64.4 °F 60.8 °F 88% 30.10 in 10.0 mi West 10.4 mph 17.3 mph N/A   Scattered Clouds
12:54 PM 73.9 °F 61.0 °F 64% 30.08 in 10.0 mi WSW 11.5 mph 17.3 mph N/A   Mostly Cloudy
1:10 PM 75.2 °F 62.6 °F 65% 30.09 in 10.0 mi WSW 10.4 mph - N/A   Mostly Cloudy
1:54 PM 75.0 °F 61.0 °F 62% 30.06 in 2.0 mi WSW 9.2 mph 19.6 mph N/A   Haze
2:05 PM 69.8 °F 60.8 °F 73% 30.07 in 10.0 mi West 11.5 mph 21.9 mph N/A   Mostly Cloudy
2:54 PM 77.0 °F 61.0 °F 58% 30.05 in 10.0 mi WSW 10.4 mph - N/A   Overcast
3:54 PM 75.9 °F 60.1 °F 58% 30.04 in 10.0 mi West 11.5 mph 18.4 mph N/A   Overcast
4:54 PM 75.9 °F 61.0 °F 60% 30.04 in 10.0 mi WNW 9.2 mph - N/A   Overcast
5:54 PM 75.0 °F 61.0 °F 62% 30.04 in 10.0 mi West 3.5 mph - N/A   Mostly Cloudy
6:54 PM 72.0 °F 61.0 °F 68% 30.06 in 10.0 mi Calm Calm - N/A   Mostly Cloudy
7:54 PM 64.9 °F 62.1 °F 90% 30.07 in 10.0 mi NW 3.5 mph - N/A   Clear
8:54 PM 61.0 °F 61.0 °F 100% 30.09 in 10.0 mi North 4.6 mph - N/A   Clear
9:54 PM 62.1 °F 61.0 °F 96% 30.09 in 10.0 mi Calm Calm - N/A   Clear
10:54 PM 61.0 °F 60.1 °F 97% 30.10 in 8.0 mi Calm Calm - N/A   Clear
11:54 PM 60.1 °F 60.1 °F 100% 30.11 in 6.0 mi Calm Calm - N/A   Clear